Time,TemperatureF,DewpointF,PressureIn,WindDirection,WindDirectionDegrees,WindSpeedMPH,WindSpeedGustMPH,Humidity,HourlyPrecipIn,Conditions,Clouds,dailyrainin,SolarRadiationWatts/m^2,SoftwareType,DateUTC
2013-04-19 00:00:00,46.5,44.3,29.83,NNW,329,0.0,14.0,92,0.00,,---,0.00,0.00,VWS V14.00,2013-04-19 05:00:00,
2013-04-19 00:01:00,46.4,44.2,29.82,NW,315,0.0,7.0,92,0.00,,---,0.00,0.00,VWS V14.00,2013-04-19 05:01:00,
2013-04-19 00:06:00,46.3,44.1,29.83,North,355,0.0,13.0,92,0.00,,---,0.00,0.00,VWS V14.00,2013-04-19 05:06:00,
2013-04-19 00:11:00,46.3,44.1,29.84,NNW,346,0.0,13.0,92,0.00,,---,0.00,0.00,VWS V14.00,2013-04-19 05:11:00,
2013-04-19 00:16:00,46.3,44.1,29.84,NNW,339,0.0,13.0,92,0.00,,---,0.01,0.00,VWS V14.00,2013-04-19 05:16:00,
2013-04-19 00:21:00,46.3,43.8,29.82,North,5,0.0,13.0,91,0.00,,---,0.01,0.00,VWS V14.00,2013-04-19 05:21:00,
2013-04-19 00:26:00,46.2,43.7,29.82,NNE,22,0.0,13.0,91,0.00,,---,0.01,0.00,VWS V14.00,2013-04-19 05:26:00,
2013-04-19 00:30:00,46.2,43.7,29.82,North,9,0.0,13.0,91,0.00,,---,0.01,0.00,VWS V14.00,2013-04-19 05:30:00,
2013-04-19 00:31:00,46.2,44.0,29.82,NW,308,0.0,5.0,92,0.00,,---,0.01,0.00,VWS V14.00,2013-04-19 05:31:00,
2013-04-19 00:36:00,46.1,43.6,29.83,NW,323,0.0,12.0,91,0.00,,---,0.01,0.00,VWS V14.00,2013-04-19 05:36:00,
2013-04-19 00:41:00,46.0,43.2,29.83,North,355,12.0,12.0,90,0.00,,---,0.02,0.00,VWS V14.00,2013-04-19 05:41:00,
2013-04-19 00:46:00,45.9,42.8,29.84,WSW,253,5.0,13.0,89,0.00,,---,0.02,0.00,VWS V14.00,2013-04-19 05:46:00,
2013-04-19 00:51:00,45.7,42.4,29.87,West,261,0.0,14.0,88,0.00,,---,0.02,0.00,VWS V14.00,2013-04-19 05:51:00,
2013-04-19 00:56:00,45.6,42.0,29.84,WNW,303,4.0,14.0,87,0.04,,---,0.03,0.00,VWS V14.00,2013-04-19 05:56:00,
2013-04-19 01:00:00,45.6,42.0,29.84,West,267,0.0,14.0,87,0.04,,---,0.03,0.00,VWS V14.00,2013-04-19 06:00:00,
2013-04-19 01:01:00,45.5,42.2,29.85,NW,309,0.0,12.0,88,0.04,,---,0.03,0.00,VWS V14.00,2013-04-19 06:01:00,
2013-04-19 01:06:00,45.5,42.2,29.87,North,11,0.0,12.0,88,0.04,,---,0.03,0.00,VWS V14.00,2013-04-19 06:06:00,
2013-04-19 01:11:00,45.5,42.5,29.87,WNW,300,0.0,13.0,89,0.00,,---,0.03,0.00,VWS V14.00,2013-04-19 06:11:00,
2013-04-19 01:16:00,45.5,42.2,29.86,North,355,0.0,13.0,88,0.00,,---,0.04,0.00,VWS V14.00,2013-04-19 06:16:00,
2013-04-19 01:21:00,45.4,41.8,29.86,North,350,0.0,16.0,87,0.00,,---,0.04,0.00,VWS V14.00,2013-04-19 06:21:00,
2013-04-19 01:26:00,45.4,41.8,29.85,SW,221,0.0,16.0,87,0.00,,---,0.04,0.00,VWS V14.00,2013-04-19 06:26:00,
2013-04-19 01:30:00,45.4,41.8,29.85,NNW,336,7.0,16.0,87,0.00,,---,0.04,0.00,VWS V14.00,2013-04-19 06:30:00,
2013-04-19 01:31:00,45.4,41.2,29.86,WSW,242,0.0,11.0,85,0.04,,---,0.05,0.00,VWS V14.00,2013-04-19 06:31:00,
2013-04-19 01:36:00,45.3,40.8,29.86,WNW,301,4.0,15.0,84,0.04,,---,0.05,0.00,VWS V14.00,2013-04-19 06:36:00,
2013-04-19 01:41:00,45.3,40.8,29.87,NNW,333,0.0,15.0,84,0.04,,---,0.05,0.00,VWS V14.00,2013-04-19 06:41:00,
2013-04-19 01:46:00,45.2,40.7,29.87,WNW,286,0.0,15.0,84,0.00,,---,0.05,0.00,VWS V14.00,2013-04-19 06:46:00,
2013-04-19 01:51:00,45.2,41.0,29.86,North,360,9.0,15.0,85,0.00,,---,0.06,0.00,VWS V14.00,2013-04-19 06:51:00,
2013-04-19 01:56:00,45.2,41.0,29.87,North,351,5.0,15.0,85,0.00,,---,0.06,0.00,VWS V14.00,2013-04-19 06:56:00,
2013-04-19 02:00:00,45.2,40.7,29.87,WNW,283,5.0,15.0,84,0.00,,---,0.06,0.00,VWS V14.00,2013-04-19 07:00:00,
2013-04-19 02:01:00,45.2,41.0,29.87,North,355,0.0,7.0,85,0.00,,---,0.06,0.00,VWS V14.00,2013-04-19 07:01:00,
2013-04-19 02:06:00,45.1,40.6,29.87,North,360,0.0,15.0,84,0.04,,---,0.07,0.00,VWS V14.00,2013-04-19 07:06:00,
2013-04-19 02:11:00,45.1,40.2,29.87,NW,311,4.0,15.0,83,0.04,,---,0.07,0.00,VWS V14.00,2013-04-19 07:11:00,
2013-04-19 02:16:00,45.2,40.0,29.86,NNW,331,0.0,15.0,82,0.04,,---,0.07,0.00,VWS V14.00,2013-04-19 07:16:00,
2013-04-19 02:21:00,45.2,39.7,29.87,NNW,336,3.0,15.0,81,0.00,,---,0.07,0.00,VWS V14.00,2013-04-19 07:21:00,
2013-04-19 02:26:00,45.2,39.7,29.87,WSW,249,5.0,15.0,81,0.00,,---,0.08,0.00,VWS V14.00,2013-04-19 07:26:00,
2013-04-19 02:30:00,45.2,39.7,29.87,NNW,336,0.0,15.0,81,0.00,,---,0.08,0.00,VWS V14.00,2013-04-19 07:30:00,
2013-04-19 02:31:00,45.2,39.7,29.87,NE,39,0.0,14.0,81,0.00,,---,0.08,0.00,VWS V14.00,2013-04-19 07:31:00,
2013-04-19 02:36:00,45.2,40.0,29.88,West,278,0.0,14.0,82,0.00,,---,0.08,0.00,VWS V14.00,2013-04-19 07:36:00,
2013-04-19 02:41:00,45.1,40.2,29.88,WNW,296,0.0,14.0,83,0.04,,---,0.09,0.00,VWS V14.00,2013-04-19 07:41:00,
2013-04-19 02:46:00,45.0,40.2,29.88,WNW,294,0.0,14.0,83,0.04,,---,0.09,0.00,VWS V14.00,2013-04-19 07:46:00,
2013-04-19 02:51:00,45.0,39.5,29.88,North,355,0.0,14.0,81,0.04,,---,0.09,0.00,VWS V14.00,2013-04-19 07:51:00,
2013-04-19 02:56:00,44.9,38.8,29.88,NE,49,0.0,14.0,79,0.04,,---,0.09,0.00,VWS V14.00,2013-04-19 07:56:00,
2013-04-19 03:00:00,44.9,38.5,29.88,NNE,20,0.0,14.0,78,0.00,,---,0.09,0.00,VWS V14.00,2013-04-19 08:00:00,
2013-04-19 03:01:00,44.9,38.8,29.88,WSW,244,0.0,7.0,79,0.00,,---,0.09,0.00,VWS V14.00,2013-04-19 08:01:00,
2013-04-19 03:06:00,44.8,38.4,29.89,WNW,283,3.0,12.0,78,0.00,,---,0.10,0.00,VWS V14.00,2013-04-19 08:06:00,
2013-04-19 03:11:00,44.7,38.3,29.89,NNW,341,0.0,12.0,78,0.00,,---,0.10,0.00,VWS V14.00,2013-04-19 08:11:00,
2013-04-19 03:16:00,44.6,37.8,29.89,North,5,0.0,12.0,77,0.00,,---,0.10,0.00,VWS V14.00,2013-04-19 08:16:00,
2013-04-19 03:21:00,44.5,37.8,29.89,NNW,334,0.0,12.0,77,0.04,,---,0.11,0.00,VWS V14.00,2013-04-19 08:21:00,
2013-04-19 03:26:00,44.5,38.1,29.89,WSW,244,0.0,13.0,78,0.04,,---,0.11,0.00,VWS V14.00,2013-04-19 08:26:00,
2013-04-19 03:30:00,44.5,38.1,29.89,NNW,338,4.0,12.0,78,0.04,,---,0.11,0.00,VWS V14.00,2013-04-19 08:30:00,
2013-04-19 03:35:00,44.5,38.1,29.89,WNW,294,0.0,12.0,78,0.04,,---,0.11,0.00,VWS V14.00,2013-04-19 08:35:00,
2013-04-19 03:40:00,44.6,37.8,29.89,SW,227,0.0,12.0,77,0.00,,---,0.11,0.00,VWS V14.00,2013-04-19 08:40:00,
2013-04-19 03:45:00,44.5,37.4,29.88,WSW,249,11.0,14.0,76,0.00,,---,0.12,0.00,VWS V14.00,2013-04-19 08:45:00,
2013-04-19 03:50:00,44.6,37.2,29.89,SSE,166,0.0,17.0,75,0.00,,---,0.12,0.00,VWS V14.00,2013-04-19 08:50:00,
2013-04-19 03:55:00,44.6,37.8,29.89,West,273,0.0,17.0,77,0.00,,---,0.12,0.00,VWS V14.00,2013-04-19 08:55:00,
2013-04-19 04:00:00,44.5,37.8,29.89,WSW,255,0.0,4.0,77,0.00,,---,0.13,0.00,VWS V14.00,2013-04-19 09:00:00,
2013-04-19 04:05:00,44.5,37.4,29.89,WSW,257,2.0,10.0,76,0.00,,---,0.13,0.00,VWS V14.00,2013-04-19 09:05:00,
2013-04-19 04:10:00,44.5,37.4,29.89,West,272,0.0,10.0,76,0.00,,---,0.13,0.00,VWS V14.00,2013-04-19 09:10:00,
2013-04-19 04:15:00,44.5,37.1,29.89,NNE,16,0.0,15.0,75,0.00,,---,0.13,0.00,VWS V14.00,2013-04-19 09:15:00,
2013-04-19 04:20:00,44.5,37.1,29.89,West,259,5.0,15.0,75,0.00,,---,0.13,0.00,VWS V14.00,2013-04-19 09:20:00,
2013-04-19 04:25:00,44.5,37.1,29.89,NNW,334,0.0,15.0,75,0.00,,---,0.14,0.00,VWS V14.00,2013-04-19 09:25:00,
2013-04-19 04:30:00,44.5,37.1,29.89,NW,325,0.0,7.0,75,0.00,,---,0.14,0.00,VWS V14.00,2013-04-19 09:30:00,
2013-04-19 04:35:00,44.5,37.1,29.89,North,349,0.0,7.0,75,0.00,,---,0.14,0.00,VWS V14.00,2013-04-19 09:35:00,
2013-04-19 04:40:00,44.5,37.1,29.90,West,267,7.0,7.0,75,0.00,,---,0.14,0.00,VWS V14.00,2013-04-19 09:40:00,
2013-04-19 04:46:00,44.5,36.7,29.90,NNE,27,0.0,10.0,74,0.00,,---,0.15,0.00,VWS V14.00,2013-04-19 09:46:00,
2013-04-19 04:51:00,44.5,37.4,29.90,NW,311,0.0,10.0,76,0.00,,---,0.15,0.00,VWS V14.00,2013-04-19 09:51:00,
2013-04-19 04:56:00,44.4,37.0,29.90,NW,324,0.0,10.0,75,0.00,,---,0.15,0.00,VWS V14.00,2013-04-19 09:56:00,
2013-04-19 05:00:00,44.4,37.3,29.90,NW,324,0.0,10.0,76,0.00,,---,0.15,0.00,VWS V14.00,2013-04-19 10:00:00,
2013-04-19 05:01:00,44.3,37.2,29.90,NNW,332,0.0,0.0,76,0.00,,---,0.15,0.00,VWS V14.00,2013-04-19 10:01:00,
2013-04-19 05:05:00,44.3,37.2,29.91,NW,314,0.0,0.0,76,0.00,,---,0.16,0.00,VWS V14.00,2013-04-19 10:05:00,
2013-04-19 05:10:00,44.3,37.6,29.91,NNW,343,0.0,0.0,77,0.00,,---,0.16,0.00,VWS V14.00,2013-04-19 10:10:00,
2013-04-19 05:15:00,44.3,37.6,29.91,NNE,30,0.0,0.0,77,0.00,,---,0.16,0.00,VWS V14.00,2013-04-19 10:15:00,
2013-04-19 05:20:00,44.3,37.2,29.91,WNW,294,0.0,3.0,76,0.00,,---,0.16,0.00,VWS V14.00,2013-04-19 10:20:00,
2013-04-19 05:25:00,44.2,37.5,29.92,WSW,252,0.0,5.0,77,0.00,,---,0.17,0.00,VWS V14.00,2013-04-19 10:25:00,
2013-04-19 05:30:00,44.4,37.3,29.93,West,276,0.0,5.0,76,0.00,,---,0.17,0.00,VWS V14.00,2013-04-19 10:30:00,
2013-04-19 05:35:00,44.4,37.0,29.92,NW,324,0.0,5.0,75,0.00,,---,0.17,0.00,VWS V14.00,2013-04-19 10:35:00,
2013-04-19 05:40:00,44.5,37.4,29.93,WNW,302,0.0,5.0,76,0.00,,---,0.17,0.00,VWS V14.00,2013-04-19 10:40:00,
2013-04-19 05:45:00,44.6,37.2,29.93,West,277,0.0,7.0,75,0.00,,---,0.17,0.00,VWS V14.00,2013-04-19 10:45:00,
2013-04-19 05:50:00,44.6,37.5,29.93,West,279,4.0,7.0,76,0.00,,---,0.18,0.00,VWS V14.00,2013-04-19 10:50:00,
2013-04-19 05:55:00,44.7,37.6,29.93,WNW,287,2.0,10.0,76,0.00,,---,0.18,0.00,VWS V14.00,2013-04-19 10:55:00,
2013-04-19 06:00:00,44.7,37.6,29.94,NW,309,0.0,7.0,76,0.00,,---,0.18,0.00,VWS V14.00,2013-04-19 11:00:00,
2013-04-19 06:05:00,44.8,37.7,29.94,West,279,0.0,7.0,76,0.00,,---,0.18,0.00,VWS V14.00,2013-04-19 11:05:00,
2013-04-19 06:10:00,44.8,38.0,29.94,West,276,0.0,7.0,77,0.00,,---,0.19,0.00,VWS V14.00,2013-04-19 11:10:00,
2013-04-19 06:15:00,44.8,37.7,29.94,West,266,0.0,7.0,76,0.00,,---,0.19,0.00,VWS V14.00,2013-04-19 11:15:00,
2013-04-19 06:20:00,44.9,37.5,29.94,WNW,286,0.0,12.0,75,0.00,,---,0.19,0.00,VWS V14.00,2013-04-19 11:20:00,
2013-04-19 06:25:00,44.9,37.1,29.94,WSW,258,0.0,12.0,74,0.00,,---,0.19,0.00,VWS V14.00,2013-04-19 11:25:00,
2013-04-19 06:30:00,45.0,36.9,29.95,NNW,338,0.0,9.0,73,0.00,,---,0.19,0.00,VWS V14.00,2013-04-19 11:30:00,
2013-04-19 06:35:00,44.9,37.5,29.95,WNW,283,0.0,9.0,75,0.00,,---,0.19,0.00,VWS V14.00,2013-04-19 11:35:00,
2013-04-19 06:40:00,44.9,37.5,29.96,NW,325,0.0,9.0,75,0.00,,---,0.20,0.00,VWS V14.00,2013-04-19 11:40:00,
2013-04-19 06:45:00,45.0,37.2,29.96,WNW,286,3.0,13.0,74,0.00,,---,0.20,5.00,VWS V14.00,2013-04-19 11:45:00,
2013-04-19 06:50:00,45.0,36.9,29.96,North,10,0.0,13.0,73,0.00,,---,0.20,7.00,VWS V14.00,2013-04-19 11:50:00,
2013-04-19 06:55:00,44.9,36.4,29.97,West,263,0.0,13.0,72,0.00,,---,0.20,12.00,VWS V14.00,2013-04-19 11:55:00,
2013-04-19 07:00:00,44.9,36.1,29.97,NNW,334,3.0,14.0,71,0.00,,---,0.21,19.00,VWS V14.00,2013-04-19 12:00:00,
2013-04-19 07:05:00,44.8,36.0,29.97,WNW,298,0.0,14.0,71,0.00,,---,0.21,25.00,VWS V14.00,2013-04-19 12:05:00,
2013-04-19 07:10:00,44.8,36.0,29.97,North,360,0.0,14.0,71,0.00,,---,0.21,28.00,VWS V14.00,2013-04-19 12:10:00,
2013-04-19 07:15:00,44.8,36.0,29.97,NW,308,0.0,14.0,71,0.00,,---,0.21,33.00,VWS V14.00,2013-04-19 12:15:00,
2013-04-19 07:20:00,44.7,36.2,29.97,NNE,20,0.0,14.0,72,0.00,,---,0.21,42.00,VWS V14.00,2013-04-19 12:20:00,
2013-04-19 07:25:00,44.7,35.9,29.97,West,263,0.0,14.0,71,0.00,,---,0.22,47.00,VWS V14.00,2013-04-19 12:25:00,
2013-04-19 07:30:00,44.6,35.8,29.97,North,10,0.0,3.0,71,0.00,,---,0.22,51.00,VWS V14.00,2013-04-19 12:30:00,
2013-04-19 07:35:00,44.7,35.5,29.97,NW,325,0.0,7.0,70,0.00,,---,0.22,58.00,VWS V14.00,2013-04-19 12:35:00,
2013-04-19 07:40:00,44.7,35.9,29.97,NW,321,0.0,7.0,71,0.00,,---,0.22,58.00,VWS V14.00,2013-04-19 12:40:00,
2013-04-19 07:45:00,44.6,35.8,29.98,North,355,0.0,7.0,71,0.00,,---,0.23,62.00,VWS V14.00,2013-04-19 12:45:00,
2013-04-19 07:50:00,44.7,36.2,29.98,NW,319,0.0,7.0,72,0.00,,---,0.23,63.00,VWS V14.00,2013-04-19 12:50:00,
2013-04-19 07:55:00,44.7,35.9,29.98,WNW,296,0.0,9.0,71,0.00,,---,0.23,69.00,VWS V14.00,2013-04-19 12:55:00,
2013-04-19 08:00:00,44.7,35.9,29.98,West,278,0.0,0.0,71,0.00,,---,0.23,77.00,VWS V14.00,2013-04-19 13:00:00,
2013-04-19 08:05:00,44.7,35.9,29.98,NNW,337,0.0,4.0,71,0.00,,---,0.23,83.00,VWS V14.00,2013-04-19 13:05:00,
2013-04-19 08:10:00,44.8,36.3,29.98,NW,323,0.0,4.0,72,0.00,,---,0.23,97.00,VWS V14.00,2013-04-19 13:10:00,
2013-04-19 08:15:00,44.8,36.0,29.98,NW,319,0.0,10.0,71,0.00,,---,0.24,105.00,VWS V14.00,2013-04-19 13:15:00,
2013-04-19 08:20:00,44.9,36.1,29.98,NNE,22,0.0,10.0,71,0.00,,---,0.24,118.00,VWS V14.00,2013-04-19 13:20:00,
2013-04-19 08:25:00,45.0,36.5,29.98,NNW,329,0.0,10.0,72,0.00,,---,0.24,118.00,VWS V14.00,2013-04-19 13:25:00,
2013-04-19 08:30:00,45.0,36.9,29.98,WNW,300,0.0,0.0,73,0.00,,---,0.24,132.00,VWS V14.00,2013-04-19 13:30:00,
2013-04-19 08:35:00,45.0,36.5,29.98,NW,304,0.0,2.0,72,0.00,,---,0.25,139.00,VWS V14.00,2013-04-19 13:35:00,
2013-04-19 08:40:00,45.1,37.3,29.98,NNW,343,0.0,2.0,74,0.00,,---,0.25,151.00,VWS V14.00,2013-04-19 13:40:00,
2013-04-19 08:45:00,45.1,36.6,29.98,North,9,0.0,2.0,72,0.00,,---,0.25,169.00,VWS V14.00,2013-04-19 13:45:00,
2013-04-19 08:50:00,45.2,36.7,29.98,West,279,0.0,6.0,72,0.00,,---,0.25,153.00,VWS V14.00,2013-04-19 13:50:00,
2013-04-19 08:55:00,45.2,37.4,29.99,West,274,0.0,6.0,74,0.00,,---,0.25,167.00,VWS V14.00,2013-04-19 13:55:00,
2013-04-19 09:00:00,45.3,37.2,29.99,WNW,285,3.0,6.0,73,0.00,,---,0.25,139.00,VWS V14.00,2013-04-19 14:00:00,
2013-04-19 09:05:00,45.4,37.6,29.99,West,269,0.0,6.0,74,0.00,,---,0.26,132.00,VWS V14.00,2013-04-19 14:05:00,
2013-04-19 09:10:00,45.4,36.9,29.99,WNW,291,0.0,6.0,72,0.00,,---,0.26,128.00,VWS V14.00,2013-04-19 14:10:00,
2013-04-19 09:15:00,45.3,37.2,29.99,SW,233,0.0,6.0,73,0.00,,---,0.26,123.00,VWS V14.00,2013-04-19 14:15:00,
2013-04-19 09:20:00,45.2,37.4,30.00,West,269,0.0,6.0,74,0.00,,---,0.26,135.00,VWS V14.00,2013-04-19 14:20:00,
2013-04-19 09:25:00,45.2,37.8,30.00,West,269,0.0,6.0,75,0.00,,---,0.27,236.00,VWS V14.00,2013-04-19 14:25:00,
2013-04-19 09:30:00,45.6,38.2,29.99,West,271,0.0,6.0,75,0.00,,---,0.27,292.00,VWS V14.00,2013-04-19 14:30:00,
2013-04-19 09:35:00,45.9,37.4,29.99,West,273,3.0,12.0,72,0.00,,---,0.27,200.00,VWS V14.00,2013-04-19 14:35:00,
2013-04-19 09:40:00,46.0,37.5,30.00,WSW,253,0.0,12.0,72,0.00,,---,0.27,197.00,VWS V14.00,2013-04-19 14:40:00,
2013-04-19 09:45:00,46.0,37.1,30.00,West,280,5.0,15.0,71,0.00,,---,0.27,176.00,VWS V14.00,2013-04-19 14:45:00,
2013-04-19 09:50:00,46.0,37.5,30.00,WSW,257,7.0,15.0,72,0.00,,---,0.28,234.00,VWS V14.00,2013-04-19 14:50:00,
2013-04-19 09:55:00,46.1,37.6,30.01,WSW,252,0.0,15.0,72,0.00,,---,0.28,186.00,VWS V14.00,2013-04-19 14:55:00,
2013-04-19 10:00:00,46.1,36.9,30.02,West,280,5.0,10.0,70,0.00,,---,0.28,167.00,VWS V14.00,2013-04-19 15:00:00,
2013-04-19 10:05:00,46.1,36.5,30.02,WSW,257,7.0,18.0,69,0.00,,---,0.28,244.00,VWS V14.00,2013-04-19 15:05:00,
2013-04-19 10:10:00,46.1,36.1,30.02,WSW,247,12.0,18.0,68,0.00,,---,0.29,169.00,VWS V14.00,2013-04-19 15:10:00,
2013-04-19 10:15:00,45.9,36.0,30.03,NNW,346,0.0,18.0,68,0.00,,---,0.29,144.00,VWS V14.00,2013-04-19 15:15:00,
2013-04-19 10:20:00,45.8,37.0,30.04,NW,325,0.0,18.0,71,0.00,,---,0.29,127.00,VWS V14.00,2013-04-19 15:20:00,
2013-04-19 10:25:00,45.8,37.0,30.04,North,360,0.0,18.0,71,0.00,,---,0.29,137.00,VWS V14.00,2013-04-19 15:25:00,
2013-04-19 10:30:00,45.5,37.0,30.05,North,5,0.0,2.0,72,0.00,,---,0.29,135.00,VWS V14.00,2013-04-19 15:30:00,
2013-04-19 10:35:00,45.2,36.7,30.05,NE,42,0.0,4.0,72,0.00,,---,0.29,139.00,VWS V14.00,2013-04-19 15:35:00,
2013-04-19 10:40:00,44.9,35.7,30.05,NW,323,0.0,6.0,70,0.00,,---,0.30,167.00,VWS V14.00,2013-04-19 15:40:00,
2013-04-19 10:45:00,44.9,36.4,30.05,West,261,0.0,6.0,72,0.00,,---,0.30,322.00,VWS V14.00,2013-04-19 15:45:00,
2013-04-19 10:50:00,45.0,36.5,30.05,WSW,240,0.0,6.0,72,0.00,,---,0.30,311.00,VWS V14.00,2013-04-19 15:50:00,
2013-04-19 10:55:00,45.2,36.0,30.05,WSW,237,4.0,6.0,70,0.00,,---,0.30,396.00,VWS V14.00,2013-04-19 15:55:00,
2013-04-19 11:00:00,45.8,37.0,30.05,WSW,252,5.0,10.0,71,0.00,,---,0.31,341.00,VWS V14.00,2013-04-19 16:00:00,
2013-04-19 11:05:00,46.1,36.9,30.05,WNW,301,0.0,13.0,70,0.00,,---,0.31,388.00,VWS V14.00,2013-04-19 16:05:00,
2013-04-19 11:10:00,46.4,36.4,30.06,NW,317,2.0,13.0,68,0.00,,---,0.31,404.00,VWS V14.00,2013-04-19 16:10:00,
2013-04-19 11:15:00,46.4,36.0,30.05,West,270,0.0,13.0,67,0.00,,---,0.31,346.00,VWS V14.00,2013-04-19 16:15:00,
2013-04-19 11:20:00,46.3,35.6,30.05,West,266,0.0,13.0,66,0.00,,---,0.31,367.00,VWS V14.00,2013-04-19 16:20:00,
2013-04-19 11:25:00,46.4,36.0,30.05,NE,56,0.0,13.0,67,0.00,,---,0.31,338.00,VWS V14.00,2013-04-19 16:25:00,
2013-04-19 11:30:00,46.5,35.0,30.05,WNW,293,0.0,7.0,64,0.00,,---,0.32,385.00,VWS V14.00,2013-04-19 16:30:00,
2013-04-19 11:35:00,46.5,35.4,30.05,West,266,0.0,7.0,65,0.00,,---,0.32,425.00,VWS V14.00,2013-04-19 16:35:00,
2013-04-19 11:40:00,47.1,36.0,30.05,West,279,4.0,12.0,65,0.00,,---,0.32,237.00,VWS V14.00,2013-04-19 16:40:00,
2013-04-19 11:45:00,47.6,35.6,30.04,West,263,5.0,13.0,63,0.00,,---,0.32,188.00,VWS V14.00,2013-04-19 16:45:00,
2013-04-19 11:50:00,47.9,36.3,30.03,NNW,335,0.0,13.0,64,0.00,,---,0.33,343.00,VWS V14.00,2013-04-19 16:50:00,
2013-04-19 11:55:00,48.3,36.7,30.03,WSW,256,5.0,13.0,64,0.00,,---,0.33,705.00,VWS V14.00,2013-04-19 16:55:00,
2013-04-19 12:00:00,48.6,37.0,30.03,West,274,0.0,7.0,64,0.00,,---,0.33,1206.00,VWS V14.00,2013-04-19 17:00:00,
2013-04-19 12:05:00,49.5,38.2,30.03,WSW,258,5.0,14.0,65,0.00,,---,0.33,1185.00,VWS V14.00,2013-04-19 17:05:00,
2013-04-19 12:10:00,50.0,37.1,30.03,NNW,344,0.0,14.0,61,0.00,,---,0.33,468.00,VWS V14.00,2013-04-19 17:10:00,
2013-04-19 12:15:00,49.8,37.3,30.03,WNW,294,3.0,14.0,62,0.00,,---,0.33,510.00,VWS V14.00,2013-04-19 17:15:00,
2013-04-19 12:20:00,49.6,35.9,30.03,West,267,8.0,14.0,59,0.00,,---,0.33,381.00,VWS V14.00,2013-04-19 17:20:00,
2013-04-19 12:25:00,49.6,35.9,30.03,West,267,0.0,14.0,59,0.00,,---,0.33,543.00,VWS V14.00,2013-04-19 17:25:00,
2013-04-19 12:30:00,49.6,35.0,30.04,NNE,28,0.0,9.0,57,0.00,,---,0.33,401.00,VWS V14.00,2013-04-19 17:30:00,
2013-04-19 12:35:00,49.2,35.1,30.03,North,11,0.0,9.0,58,0.00,,---,0.33,329.00,VWS V14.00,2013-04-19 17:35:00,
2013-04-19 12:40:00,49.5,35.8,30.03,West,271,0.0,12.0,59,0.00,,---,0.33,1216.00,VWS V14.00,2013-04-19 17:40:00,
2013-04-19 12:45:00,50.4,37.9,30.04,West,260,0.0,12.0,62,0.00,,---,0.33,1141.00,VWS V14.00,2013-04-19 17:45:00,
2013-04-19 12:50:00,50.9,36.2,30.03,WSW,248,0.0,12.0,57,0.00,,---,0.33,1197.00,VWS V14.00,2013-04-19 17:50:00,
2013-04-19 12:55:00,51.3,35.7,30.04,WSW,250,0.0,12.0,55,0.00,,---,0.33,480.00,VWS V14.00,2013-04-19 17:55:00,
2013-04-19 13:00:00,51.4,36.7,30.04,WSW,245,5.0,6.0,57,0.00,,---,0.33,367.00,VWS V14.00,2013-04-19 18:00:00,
2013-04-19 13:05:00,51.2,36.5,30.04,WNW,296,0.0,10.0,57,0.00,,---,0.33,424.00,VWS V14.00,2013-04-19 18:05:00,
2013-04-19 13:10:00,51.0,35.9,30.04,WSW,245,3.0,10.0,56,0.00,,---,0.33,673.00,VWS V14.00,2013-04-19 18:10:00,
2013-04-19 13:15:00,51.1,37.3,30.04,SW,228,0.0,13.0,59,0.00,,---,0.33,439.00,VWS V14.00,2013-04-19 18:15:00,
2013-04-19 13:20:00,51.1,36.4,30.04,WSW,241,1.0,13.0,57,0.00,,---,0.33,441.00,VWS V14.00,2013-04-19 18:20:00,
2013-04-19 13:25:00,50.9,37.1,30.04,WSW,246,0.0,13.0,59,0.00,,---,0.33,439.00,VWS V14.00,2013-04-19 18:25:00,
2013-04-19 13:30:00,51.0,36.3,30.05,West,262,3.0,10.0,57,0.00,,---,0.33,436.00,VWS V14.00,2013-04-19 18:30:00,
2013-04-19 13:35:00,50.7,36.5,30.04,West,267,0.0,13.0,58,0.00,,---,0.33,578.00,VWS V14.00,2013-04-19 18:35:00,
2013-04-19 13:40:00,51.2,37.4,30.03,North,360,6.0,13.0,59,0.00,,---,0.33,1343.00,VWS V14.00,2013-04-19 18:40:00,
2013-04-19 13:45:00,51.6,37.3,30.04,WSW,250,10.0,19.0,58,0.00,,---,0.33,1230.00,VWS V14.00,2013-04-19 18:45:00,
2013-04-19 13:50:00,51.7,36.5,30.04,SW,223,6.0,19.0,56,0.00,,---,0.34,1215.00,VWS V14.00,2013-04-19 18:50:00,
2013-04-19 13:55:00,51.6,37.8,30.04,West,259,5.0,19.0,59,0.00,,---,0.34,396.00,VWS V14.00,2013-04-19 18:55:00,
2013-04-19 14:00:00,52.1,37.3,30.04,WSW,243,2.0,14.0,57,0.00,,---,0.34,1276.00,VWS V14.00,2013-04-19 19:00:00,
2013-04-19 14:05:00,51.7,36.5,30.04,NNW,344,0.0,14.0,56,0.00,,---,0.34,454.00,VWS V14.00,2013-04-19 19:05:00,
2013-04-19 14:10:00,51.7,36.5,30.04,NNW,342,0.0,16.0,56,0.00,,---,0.34,390.00,VWS V14.00,2013-04-19 19:10:00,
2013-04-19 14:15:00,51.6,37.3,30.04,WSW,254,0.0,16.0,58,0.00,,---,0.34,394.00,VWS V14.00,2013-04-19 19:15:00,
2013-04-19 14:20:00,51.5,37.2,30.04,West,267,9.0,16.0,58,0.00,,---,0.34,394.00,VWS V14.00,2013-04-19 19:20:00,
2013-04-19 14:25:00,51.5,38.1,30.04,SW,236,0.0,16.0,60,0.00,,---,0.34,432.00,VWS V14.00,2013-04-19 19:25:00,
2013-04-19 14:30:00,51.6,37.8,30.04,WSW,252,5.0,7.0,59,0.00,,---,0.34,376.00,VWS V14.00,2013-04-19 19:30:00,
2013-04-19 14:35:00,51.8,37.1,30.05,WSW,251,0.0,13.0,57,0.00,,---,0.34,455.00,VWS V14.00,2013-04-19 19:35:00,
2013-04-19 14:40:00,51.9,37.2,30.04,WSW,256,6.0,14.0,57,0.00,,---,0.34,482.00,VWS V14.00,2013-04-19 19:40:00,
2013-04-19 14:45:00,52.1,36.9,30.04,North,10,0.0,14.0,56,0.00,,---,0.34,390.00,VWS V14.00,2013-04-19 19:45:00,
2013-04-19 14:50:00,52.3,37.1,30.04,WSW,254,4.0,14.0,56,0.00,,---,0.34,452.00,VWS V14.00,2013-04-19 19:50:00,
2013-04-19 14:55:00,52.8,38.0,30.04,NW,311,2.0,14.0,57,0.00,,---,0.34,374.00,VWS V14.00,2013-04-19 19:55:00,
2013-04-19 15:00:00,53.1,37.8,30.04,WSW,257,3.0,11.0,56,0.00,,---,0.34,446.00,VWS V14.00,2013-04-19 20:00:00,
2013-04-19 15:05:00,53.5,37.8,30.04,West,260,0.0,11.0,55,0.00,,---,0.34,473.00,VWS V14.00,2013-04-19 20:05:00,
2013-04-19 15:10:00,53.1,37.4,30.04,SW,234,3.0,14.0,55,0.00,,---,0.34,381.00,VWS V14.00,2013-04-19 20:10:00,
2013-04-19 15:15:00,53.1,38.7,30.04,WSW,244,4.0,14.0,58,0.00,,---,0.34,355.00,VWS V14.00,2013-04-19 20:15:00,
2013-04-19 15:20:00,53.2,38.4,30.04,NNE,15,0.0,14.0,57,0.00,,---,0.34,294.00,VWS V14.00,2013-04-19 20:20:00,
2013-04-19 15:25:00,53.3,37.1,30.03,NNE,21,1.0,14.0,54,0.00,,---,0.34,339.00,VWS V14.00,2013-04-19 20:25:00,
2013-04-19 15:30:00,53.5,37.3,30.03,NW,313,4.0,7.0,54,0.00,,---,0.34,339.00,VWS V14.00,2013-04-19 20:30:00,
2013-04-19 15:35:00,53.6,37.8,30.03,NW,319,1.0,7.0,55,0.00,,---,0.34,939.00,VWS V14.00,2013-04-19 20:35:00,
2013-04-19 15:40:00,54.3,38.0,30.03,West,272,4.0,12.0,54,0.00,,---,0.35,918.00,VWS V14.00,2013-04-19 20:40:00,
2013-04-19 15:45:00,53.9,36.7,30.03,West,267,3.0,16.0,52,0.00,,---,0.35,315.00,VWS V14.00,2013-04-19 20:45:00,
2013-04-19 15:50:00,53.8,37.1,30.03,NW,325,5.0,16.0,53,0.00,,---,0.35,921.00,VWS V14.00,2013-04-19 20:50:00,
2013-04-19 15:55:00,54.3,38.0,30.03,West,266,4.0,16.0,54,0.00,,---,0.35,448.00,VWS V14.00,2013-04-19 20:55:00,
2013-04-19 15:59:00,54.6,37.3,30.03,West,275,0.0,6.0,52,0.00,,---,0.35,886.00,VWS V14.00,2013-04-19 20:59:00,
2013-04-19 16:00:00,54.5,37.7,30.03,NNE,25,6.0,16.0,53,0.00,,---,0.35,448.00,VWS V14.00,2013-04-19 21:00:00,
2013-04-19 16:04:00,54.5,37.7,30.03,North,11,3.0,8.0,53,0.00,,---,0.35,236.00,VWS V14.00,2013-04-19 21:04:00,
2013-04-19 16:09:00,54.5,36.8,30.03,NW,309,7.0,12.0,51,0.00,,---,0.36,220.00,VWS V14.00,2013-04-19 21:09:00,
2013-04-19 16:14:00,53.9,37.2,30.03,WNW,290,0.0,12.0,53,0.00,,---,0.36,229.00,VWS V14.00,2013-04-19 21:14:00,
2013-04-19 16:19:00,53.9,37.7,30.02,WSW,252,1.0,12.0,54,0.00,,---,0.36,761.00,VWS V14.00,2013-04-19 21:19:00,
2013-04-19 16:24:00,54.7,38.4,30.03,West,270,0.0,12.0,54,0.00,,---,0.36,410.00,VWS V14.00,2013-04-19 21:24:00,
2013-04-19 16:29:00,55.1,37.8,30.03,WSW,255,1.0,13.0,52,0.00,,---,0.36,568.00,VWS V14.00,2013-04-19 21:29:00,
2013-04-19 16:30:00,55.0,37.7,30.03,WSW,254,4.0,12.0,52,0.00,,---,0.36,814.00,VWS V14.00,2013-04-19 21:30:00,
2013-04-19 16:34:00,54.6,38.3,30.03,SW,232,6.0,13.0,54,0.00,,---,0.37,740.00,VWS V14.00,2013-04-19 21:34:00,
2013-04-19 16:39:00,54.7,38.4,30.03,West,280,1.0,13.0,54,0.00,,---,0.37,689.00,VWS V14.00,2013-04-19 21:39:00,
2013-04-19 16:44:00,54.8,36.5,30.03,West,279,0.0,13.0,50,0.00,,---,0.37,183.00,VWS V14.00,2013-04-19 21:44:00,
2013-04-19 16:49:00,54.7,37.9,30.03,SW,232,2.0,13.0,53,0.00,,---,0.37,677.00,VWS V14.00,2013-04-19 21:49:00,
2013-04-19 16:54:00,54.5,37.2,30.03,NNE,17,2.0,14.0,52,0.00,,---,0.37,216.00,VWS V14.00,2013-04-19 21:54:00,
2013-04-19 16:59:00,54.6,36.8,30.03,North,5,4.0,5.0,51,0.00,,---,0.37,146.00,VWS V14.00,2013-04-19 21:59:00,
2013-04-19 17:00:00,54.6,37.3,30.03,NNW,327,0.0,14.0,52,0.00,,---,0.37,158.00,VWS V14.00,2013-04-19 22:00:00,
2013-04-19 17:04:00,54.4,36.7,30.03,West,269,3.0,9.0,51,0.00,,---,0.38,659.00,VWS V14.00,2013-04-19 22:04:00,
2013-04-19 17:09:00,54.7,37.9,30.04,WNW,299,0.0,9.0,53,0.00,,---,0.38,624.00,VWS V14.00,2013-04-19 22:09:00,
2013-04-19 17:14:00,55.0,36.7,30.04,West,267,7.0,9.0,50,0.00,,---,0.38,582.00,VWS V14.00,2013-04-19 22:14:00,
2013-04-19 17:19:00,55.3,38.0,30.04,NW,305,5.0,12.0,52,0.00,,---,0.38,181.00,VWS V14.00,2013-04-19 22:19:00,
2013-04-19 17:24:00,54.9,37.1,30.04,WSW,257,0.0,13.0,51,0.00,,---,0.39,156.00,VWS V14.00,2013-04-19 22:24:00,
2013-04-19 17:29:00,54.7,37.9,30.04,West,272,5.0,7.0,53,0.00,,---,0.39,476.00,VWS V14.00,2013-04-19 22:29:00,
2013-04-19 17:30:00,54.8,38.0,30.04,WSW,249,4.0,13.0,53,0.00,,---,0.39,455.00,VWS V14.00,2013-04-19 22:30:00,
2013-04-19 17:34:00,54.7,37.4,30.04,West,277,0.0,7.0,52,0.00,,---,0.39,446.00,VWS V14.00,2013-04-19 22:34:00,
2013-04-19 17:39:00,54.8,36.5,30.04,NNW,331,0.0,9.0,50,0.00,,---,0.39,476.00,VWS V14.00,2013-04-19 22:39:00,
2013-04-19 17:44:00,55.0,38.2,30.04,West,261,2.0,10.0,53,0.00,,---,0.39,311.00,VWS V14.00,2013-04-19 22:44:00,
2013-04-19 17:49:00,55.2,37.9,30.04,WSW,238,6.0,11.0,52,0.00,,---,0.39,258.00,VWS V14.00,2013-04-19 22:49:00,
2013-04-19 17:54:00,55.4,38.1,30.04,West,262,0.0,11.0,52,0.00,,---,0.40,362.00,VWS V14.00,2013-04-19 22:54:00,
2013-04-19 17:59:00,55.6,37.3,30.04,West,274,10.0,15.0,50,0.00,,---,0.40,316.00,VWS V14.00,2013-04-19 22:59:00,
2013-04-19 18:00:00,55.6,38.8,30.04,WSW,247,0.0,11.0,53,0.00,,---,0.40,292.00,VWS V14.00,2013-04-19 23:00:00,
2013-04-19 18:04:00,55.3,37.5,30.04,WSW,246,1.0,15.0,51,0.00,,---,0.40,294.00,VWS V14.00,2013-04-19 23:04:00,
2013-04-19 18:09:00,55.1,37.3,30.04,WSW,246,4.0,15.0,51,0.00,,---,0.40,279.00,VWS V14.00,2013-04-19 23:09:00,
2013-04-19 18:14:00,55.1,37.8,30.04,WNW,282,0.0,15.0,52,0.00,,---,0.41,258.00,VWS V14.00,2013-04-19 23:14:00,
2013-04-19 18:19:00,55.1,37.8,30.04,SW,233,0.0,15.0,52,0.00,,---,0.41,241.00,VWS V14.00,2013-04-19 23:19:00,
2013-04-19 18:24:00,55.0,37.2,30.04,SW,236,0.0,15.0,51,0.00,,---,0.41,221.00,VWS V14.00,2013-04-19 23:24:00,
2013-04-19 18:29:00,55.0,37.7,30.04,WSW,251,0.0,0.0,52,0.00,,---,0.41,192.00,VWS V14.00,2013-04-19 23:29:00,
2013-04-19 18:30:00,55.0,37.2,30.04,West,265,0.0,15.0,51,0.00,,---,0.41,206.00,VWS V14.00,2013-04-19 23:30:00,
2013-04-19 18:34:00,55.1,38.3,30.04,West,279,0.0,0.0,53,0.00,,---,0.41,171.00,VWS V14.00,2013-04-19 23:34:00,
2013-04-19 18:39:00,55.2,38.9,30.04,West,278,0.0,6.0,54,0.00,,---,0.42,148.00,VWS V14.00,2013-04-19 23:39:00,
2013-04-19 18:44:00,55.2,37.9,30.04,WSW,246,0.0,6.0,52,0.00,,---,0.42,123.00,VWS V14.00,2013-04-19 23:44:00,
2013-04-19 18:49:00,55.1,37.8,30.05,WSW,250,0.0,6.0,52,0.00,,---,0.42,74.00,VWS V14.00,2013-04-19 23:49:00,
2013-04-19 18:54:00,54.8,38.0,30.04,WSW,250,0.0,6.0,53,0.00,,---,0.42,63.00,VWS V14.00,2013-04-19 23:54:00,
2013-04-19 18:59:00,54.5,37.7,30.05,SW,234,0.0,0.0,53,0.00,,---,0.43,51.00,VWS V14.00,2013-04-19 23:59:00,
2013-04-19 19:00:00,54.7,37.9,30.05,West,259,0.0,6.0,53,0.00,,---,0.42,69.00,VWS V14.00,2013-04-20 00:00:00,
2013-04-19 19:04:00,54.2,38.4,30.05,WSW,256,0.0,0.0,55,0.00,,---,0.43,39.00,VWS V14.00,2013-04-20 00:04:00,
2013-04-19 19:09:00,54.0,38.2,30.05,WSW,256,0.0,0.0,55,0.00,,---,0.43,35.00,VWS V14.00,2013-04-20 00:09:00,
2013-04-19 19:14:00,53.6,38.3,30.05,West,260,0.0,2.0,56,0.00,,---,0.43,25.00,VWS V14.00,2013-04-20 00:14:00,
2013-04-19 19:19:00,53.2,38.4,30.05,West,261,0.0,2.0,57,0.00,,---,0.44,18.00,VWS V14.00,2013-04-20 00:19:00,
2013-04-19 19:24:00,52.9,38.5,30.06,West,261,0.0,2.0,58,0.00,,---,0.44,14.00,VWS V14.00,2013-04-20 00:24:00,
2013-04-19 19:29:00,52.5,39.0,30.06,West,261,0.0,0.0,60,0.00,,---,0.44,11.00,VWS V14.00,2013-04-20 00:29:00,
2013-04-19 19:30:00,52.7,38.8,30.05,West,261,0.0,2.0,59,0.00,,---,0.44,12.00,VWS V14.00,2013-04-20 00:30:00,
2013-04-19 19:34:00,52.1,38.7,30.06,West,261,0.0,0.0,60,0.00,,---,0.44,5.00,VWS V14.00,2013-04-20 00:34:00,
2013-04-19 19:39:00,51.7,38.7,30.06,West,261,0.0,0.0,61,0.04,,---,0.45,0.00,VWS V14.00,2013-04-20 00:39:00,
2013-04-19 19:44:00,51.3,38.7,30.07,West,261,0.0,0.0,62,0.04,,---,0.45,0.00,VWS V14.00,2013-04-20 00:44:00,
2013-04-19 19:49:00,50.9,38.4,30.06,West,261,0.0,0.0,62,0.04,,---,0.45,0.00,VWS V14.00,2013-04-20 00:49:00,
2013-04-19 19:54:00,50.5,38.8,30.07,West,261,0.0,0.0,64,0.00,,---,0.45,0.00,VWS V14.00,2013-04-20 00:54:00,
2013-04-19 19:59:00,50.1,38.8,30.07,West,261,0.0,0.0,65,0.00,,---,0.46,0.00,VWS V14.00,2013-04-20 00:59:00,
2013-04-19 20:00:00,50.3,39.4,30.07,West,261,0.0,0.0,66,0.00,,---,0.46,0.00,VWS V14.00,2013-04-20 01:00:00,
2013-04-19 20:04:00,49.7,38.8,30.07,West,261,0.0,0.0,66,0.00,,---,0.46,0.00,VWS V14.00,2013-04-20 01:04:00,
2013-04-19 20:09:00,49.4,39.3,30.07,West,261,0.0,0.0,68,0.00,,---,0.46,0.00,VWS V14.00,2013-04-20 01:09:00,
2013-04-19 20:14:00,49.0,38.9,30.07,West,261,0.0,0.0,68,0.04,,---,0.47,0.00,VWS V14.00,2013-04-20 01:14:00,
2013-04-19 20:19:00,48.7,39.4,30.07,West,261,0.0,0.0,70,0.04,,---,0.47,0.00,VWS V14.00,2013-04-20 01:19:00,
2013-04-19 20:24:00,48.3,39.0,30.07,West,261,0.0,0.0,70,0.04,,---,0.47,0.00,VWS V14.00,2013-04-20 01:24:00,
2013-04-19 20:29:00,48.1,39.9,30.08,West,261,0.0,0.0,73,0.00,,---,0.47,0.00,VWS V14.00,2013-04-20 01:29:00,
2013-04-19 20:30:00,48.2,39.2,30.07,West,261,0.0,0.0,71,0.04,,---,0.47,0.00,VWS V14.00,2013-04-20 01:30:00,
2013-04-19 20:34:00,47.7,39.5,30.08,West,261,0.0,0.0,73,0.00,,---,0.48,0.00,VWS V14.00,2013-04-20 01:34:00,
2013-04-19 20:39:00,47.4,38.8,30.08,West,261,0.0,0.0,72,0.00,,---,0.48,0.00,VWS V14.00,2013-04-20 01:39:00,
2013-04-19 20:44:00,47.1,39.2,30.08,West,261,0.0,0.0,74,0.00,,---,0.48,0.00,VWS V14.00,2013-04-20 01:44:00,
2013-04-19 20:49:00,47.0,40.2,30.08,West,261,0.0,0.0,77,0.00,,---,0.48,0.00,VWS V14.00,2013-04-20 01:49:00,
2013-04-19 20:54:00,46.7,39.2,30.09,West,261,0.0,0.0,75,0.00,,---,0.49,0.00,VWS V14.00,2013-04-20 01:54:00,
2013-04-19 20:59:00,46.5,39.0,30.09,West,261,0.0,0.0,75,0.00,,---,0.49,0.00,VWS V14.00,2013-04-20 01:59:00,
2013-04-19 21:00:00,46.6,39.1,30.09,West,261,0.0,0.0,75,0.00,,---,0.49,0.00,VWS V14.00,2013-04-20 02:00:00,
2013-04-19 21:04:00,46.3,39.2,30.10,West,261,0.0,0.0,76,0.00,,---,0.49,0.00,VWS V14.00,2013-04-20 02:04:00,
2013-04-19 21:09:00,46.1,39.0,30.10,West,261,0.0,0.0,76,0.00,,---,0.49,0.00,VWS V14.00,2013-04-20 02:09:00,
2013-04-19 21:14:00,46.0,39.9,30.10,West,261,0.0,0.0,79,0.00,,---,0.50,0.00,VWS V14.00,2013-04-20 02:14:00,
2013-04-19 21:19:00,46.0,39.9,30.10,West,261,0.0,0.0,79,0.00,,---,0.50,0.00,VWS V14.00,2013-04-20 02:19:00,
2013-04-19 21:24:00,45.9,39.8,30.11,West,261,0.0,0.0,79,0.00,,---,0.50,0.00,VWS V14.00,2013-04-20 02:24:00,
2013-04-19 21:29:00,45.8,39.7,30.11,West,261,0.0,0.0,79,0.00,,---,0.50,0.00,VWS V14.00,2013-04-20 02:29:00,
2013-04-19 21:30:00,45.8,39.7,30.11,West,261,0.0,0.0,79,0.00,,---,0.50,0.00,VWS V14.00,2013-04-20 02:30:00,
2013-04-19 21:34:00,45.6,39.5,30.11,West,261,0.0,0.0,79,0.00,,---,0.51,0.00,VWS V14.00,2013-04-20 02:34:00,
2013-04-19 21:39:00,45.6,39.8,30.11,West,261,0.0,0.0,80,0.00,,---,0.51,0.00,VWS V14.00,2013-04-20 02:39:00,
2013-04-19 21:44:00,45.6,40.4,30.11,West,261,0.0,0.0,82,0.00,,---,0.51,0.00,VWS V14.00,2013-04-20 02:44:00,
2013-04-19 21:49:00,45.7,40.5,30.12,West,261,0.0,0.0,82,0.00,,---,0.51,0.00,VWS V14.00,2013-04-20 02:49:00,
2013-04-19 21:54:00,45.6,40.1,30.12,West,261,0.0,0.0,81,0.00,,---,0.51,0.00,VWS V14.00,2013-04-20 02:54:00,
2013-04-19 21:59:00,45.4,40.2,30.12,West,261,0.0,0.0,82,0.00,,---,0.52,0.00,VWS V14.00,2013-04-20 02:59:00,
2013-04-19 22:00:00,45.5,40.0,30.12,West,261,0.0,0.0,81,0.00,,---,0.51,0.00,VWS V14.00,2013-04-20 03:00:00,
2013-04-19 22:04:00,45.2,39.7,30.12,West,261,0.0,0.0,81,0.00,,---,0.52,0.00,VWS V14.00,2013-04-20 03:04:00,
2013-04-19 22:09:00,45.0,39.5,30.12,West,261,0.0,0.0,81,0.00,,---,0.52,0.00,VWS V14.00,2013-04-20 03:09:00,
2013-04-19 22:14:00,44.9,40.1,30.12,West,261,0.0,0.0,83,0.00,,---,0.52,0.00,VWS V14.00,2013-04-20 03:14:00,
2013-04-19 22:19:00,44.7,39.5,30.12,West,261,0.0,0.0,82,0.00,,---,0.53,0.00,VWS V14.00,2013-04-20 03:19:00,
2013-04-19 22:24:00,44.5,39.4,30.12,West,261,0.0,0.0,82,0.00,,---,0.53,0.00,VWS V14.00,2013-04-20 03:24:00,
2013-04-19 22:29:00,44.3,39.2,30.12,West,261,0.0,0.0,82,0.00,,---,0.53,0.00,VWS V14.00,2013-04-20 03:29:00,
2013-04-19 22:30:00,44.4,39.3,30.12,West,261,0.0,0.0,82,0.00,,---,0.53,0.00,VWS V14.00,2013-04-20 03:30:00,
2013-04-19 22:34:00,44.1,39.0,30.12,West,261,0.0,0.0,82,0.00,,---,0.53,0.00,VWS V14.00,2013-04-20 03:34:00,
2013-04-19 22:39:00,44.0,39.2,30.12,West,261,0.0,0.0,83,0.00,,---,0.53,0.00,VWS V14.00,2013-04-20 03:39:00,
2013-04-19 22:44:00,43.8,39.0,30.12,West,261,0.0,0.0,83,0.00,,---,0.53,0.00,VWS V14.00,2013-04-20 03:44:00,
2013-04-19 22:49:00,43.7,39.2,30.12,West,261,0.0,0.0,84,0.00,,---,0.54,0.00,VWS V14.00,2013-04-20 03:49:00,
2013-04-19 22:54:00,43.7,39.2,30.12,West,261,0.0,0.0,84,0.00,,---,0.54,0.00,VWS V14.00,2013-04-20 03:54:00,
2013-04-19 22:59:00,43.6,39.1,30.12,West,261,0.0,0.0,84,0.00,,---,0.54,0.00,VWS V14.00,2013-04-20 03:59:00,
2013-04-19 23:00:00,43.6,39.1,30.12,West,261,0.0,0.0,84,0.00,,---,0.54,0.00,VWS V14.00,2013-04-20 04:00:00,
2013-04-19 23:01:00,43.6,39.1,30.12,West,261,0.0,0.0,84,0.00,,---,0.54,0.00,VWS V14.00,2013-04-20 04:01:00,
2013-04-19 23:06:00,43.5,39.0,30.13,West,261,0.0,0.0,84,0.00,,---,0.55,0.00,VWS V14.00,2013-04-20 04:06:00,
2013-04-19 23:11:00,43.5,39.0,30.13,West,261,0.0,0.0,84,0.00,,---,0.55,0.00,VWS V14.00,2013-04-20 04:11:00,
2013-04-19 23:16:00,43.4,38.9,30.13,West,261,0.0,0.0,84,0.00,,---,0.55,0.00,VWS V14.00,2013-04-20 04:16:00,
2013-04-19 23:21:00,43.3,39.1,30.13,West,261,0.0,0.0,85,0.00,,---,0.55,0.00,VWS V14.00,2013-04-20 04:21:00,
2013-04-19 23:26:00,43.3,39.1,30.13,West,261,0.0,0.0,85,0.00,,---,0.55,0.00,VWS V14.00,2013-04-20 04:26:00,
2013-04-19 23:30:00,43.3,39.1,30.13,West,261,0.0,0.0,85,0.00,,---,0.55,0.00,VWS V14.00,2013-04-20 04:30:00,
2013-04-19 23:31:00,43.4,39.8,30.13,West,261,0.0,0.0,87,0.00,,---,0.55,0.00,VWS V14.00,2013-04-20 04:31:00,
2013-04-19 23:36:00,43.6,39.7,30.12,West,261,0.0,0.0,86,0.00,,---,0.56,0.00,VWS V14.00,2013-04-20 04:36:00,
2013-04-19 23:41:00,43.5,39.6,30.12,West,261,0.0,0.0,86,0.00,,---,0.56,0.00,VWS V14.00,2013-04-20 04:41:00,
2013-04-19 23:46:00,43.4,39.2,30.12,West,261,0.0,0.0,85,0.00,,---,0.56,0.00,VWS V14.00,2013-04-20 04:46:00,
2013-04-19 23:51:00,43.3,39.1,30.13,West,261,0.0,0.0,85,0.00,,---,0.56,0.00,VWS V14.00,2013-04-20 04:51:00,
2013-04-19 23:56:00,43.2,39.3,30.13,West,261,0.0,0.0,86,0.00,,---,0.57,0.00,VWS V14.00,2013-04-20 04:56:00,